STARLINK-2054 (47664 NORAD) Tracking and Keplerian Element Data

This shows tracking and keplerian element data for the satellite.

Feedback or suggestion? Click here.




ElementValue
Catalog47664
NameSTARLINK-2054
Epoch Orbit235
Epoch Day57.16667824
Epoch Year2021
RAAN52.0366
Inclination53.0493
Eccentricity0.0001525
Argument of Perigee84.3578
Mean Anonmoly169.298
Mean Motion15.86038976
Decay Rate0.00058187
L11 47664U 21012AW 21057.16667824 .00058187 00000-0 23228-3 0 9997
L22 47664 53.0493 52.0366 0001525 84.3578 169.2980 15.86038976 2351

Live tracking and technical data element details for STARLINK-2054 (NORAD 47664). STARLINK-2054 can be tracked NOW for your location showing map with azimuth and elevation plus other details from your city location.

Track the satellite on the map from your city or location and see movement details for azimuth, elevation, latitude, longitude, range, height, and movement on the map or in text.







IsCatalogInMostPopularTable: catalog: 47664, numindb: 1
Update: records affected: 1



GetName: 47664 STARLINK-2054

Hit Count: updated at: Fri, 26 Feb 2021 08:57:53 GMT